Weather History for Creston, IA

Change the Weather History Date:

Wednesday, January 1, 2014

  Actual Average Record
Temperature  
Mean Temperature 6 °F -  
Max Temperature 10 °F 29 °F 51 °F (2004)
Min Temperature 1 °F 13 °F -10 °F (1969)
Degree Days  
Heating Degree Days 60    
Moisture  
Dew Point 2 °F    
Average Humidity 78    
Maximum Humidity 85    
Minimum Humidity 72    
Precipitation  
Precipitation 0.00 in - - ()
Sea Level Pressure  
Sea Level Pressure 30.19 in    
Wind  
Wind Speed 17 mph (NNE)    
Max Wind Speed 22 mph    
Max Gust Speed 25 mph    
Visibility 7 miles    
Events Snow    
Averages and records for this station are not official NWS values.
T = Trace of Precipitation, MM = Missing Value Source: NWS Daily Summary

Daily Weather History Graph

Daily Weather History Graph

Search for Another Location

Airport:

Trip Planner

Search our weather history database for the weather conditions in past years. The results will help you decide how hot, cold, wet, or windy it might be!

Date:

Astronomy

Jan. 01, 2014 Rise Set
Actual Time 7:42 AM CST 4:59 PM CST
Civil Twilight 7:11 AM CST 5:30 PM CST
Nautical Twilight 6:36 AM CST 6:05 PM CST
Astronomical Twilight 6:03 AM CST 6:38 PM CST
Moon 7:33 AM CST (1/1) 5:46 PM CST (1/1)
Length of Visible Light 10h 19m
Length of Day
9h 17m
New Moon, 0% of the Moon is Illuminated
Jan 1
New Moon
Jan 7
First Quarter
Jan 15
Full
Jan 23
Last Quarter
Jan 30
New

Hourly Weather History & Observations

Time (CST) Temp. Windchill Dew Point Humidity Pressure Visibility Wind Dir Wind Speed Gust Speed Precip Events Conditions
12:15 AM 10.4 °F -6.6 °F 5.0 °F 79% 30.12 in 10.0 mi NE 16.1 mph 21.9 mph N/A   Mostly Cloudy
12:35 AM 8.6 °F -10.5 °F 5.0 °F 85% 30.11 in 10.0 mi NE 19.6 mph - N/A   Overcast
12:55 AM 8.6 °F -8.3 °F 5.0 °F 85% 30.12 in 10.0 mi NE 15.0 mph 25.3 mph N/A   Overcast
1:15 AM 8.6 °F -9.5 °F 5.0 °F 85% 30.11 in 10.0 mi NE 17.3 mph - N/A   Overcast
1:35 AM 8.6 °F -9.5 °F 3.2 °F 79% 30.11 in 10.0 mi ENE 17.3 mph - N/A   Overcast
1:55 AM 8.6 °F -8.9 °F 3.2 °F 79% 30.11 in 10.0 mi NE 16.1 mph - N/A   Overcast
2:15 AM 8.6 °F -8.3 °F 3.2 °F 79% 30.11 in 10.0 mi ENE 15.0 mph 21.9 mph N/A   Overcast
2:35 AM 8.6 °F -9.5 °F 3.2 °F 79% 30.11 in - NE 17.3 mph - N/A   Overcast
2:55 AM 8.6 °F -8.9 °F 3.2 °F 79% 30.13 in 10.0 mi ENE 16.1 mph 21.9 mph N/A   Overcast
3:15 AM 8.6 °F -8.9 °F 3.2 °F 79% 30.11 in 10.0 mi ENE 16.1 mph 23.0 mph N/A   Overcast
3:35 AM 8.6 °F -10.0 °F 3.2 °F 79% 30.10 in 10.0 mi ENE 18.4 mph - N/A   Overcast
3:55 AM 8.6 °F -11.0 °F 3.2 °F 79% 30.09 in 10.0 mi ENE 20.7 mph - N/A   Overcast
4:15 AM 8.6 °F -10.0 °F 5.0 °F 85% 30.11 in 10.0 mi ENE 18.4 mph - N/A   Overcast
4:35 AM 8.6 °F -8.9 °F 5.0 °F 85% 30.12 in 10.0 mi NE 16.1 mph - N/A   Overcast
4:55 AM 8.6 °F -9.5 °F 5.0 °F 85% 30.12 in 7.0 mi NE 17.3 mph - N/A Snow Light Snow
5:15 AM 10.4 °F -7.7 °F 5.0 °F 79% 30.12 in 10.0 mi NE 18.4 mph - N/A Snow Light Snow
5:35 AM 10.4 °F -7.7 °F 5.0 °F 79% 30.13 in 10.0 mi NE 18.4 mph - N/A   Overcast
5:55 AM 10.4 °F -7.7 °F 5.0 °F 79% 30.14 in 10.0 mi NE 18.4 mph - N/A   Overcast
6:15 AM 10.4 °F -7.7 °F 5.0 °F 79% 30.14 in 10.0 mi ENE 18.4 mph - N/A   Overcast
6:35 AM 10.4 °F -7.7 °F 5.0 °F 79% 30.14 in 10.0 mi ENE 18.4 mph - N/A   Overcast
6:55 AM 10.4 °F -7.7 °F 5.0 °F 79% 30.14 in 10.0 mi NE 18.4 mph - N/A   Overcast
7:15 AM 10.4 °F -7.2 °F 5.0 °F 79% 30.15 in 10.0 mi NE 17.3 mph - N/A   Overcast
7:35 AM 10.4 °F -8.2 °F 5.0 °F 79% 30.15 in 9.0 mi NE 19.6 mph - N/A   Overcast
7:55 AM 10.4 °F -6.0 °F 5.0 °F 79% 30.15 in 8.0 mi NE 15.0 mph 23.0 mph N/A   Overcast
8:15 AM 10.4 °F -7.2 °F 5.0 °F 79% 30.15 in 3.0 mi NE 17.3 mph - N/A Snow Light Snow
8:35 AM 10.4 °F -6.6 °F 5.0 °F 79% 30.16 in 4.0 mi NE 16.1 mph - N/A   Haze
8:55 AM 10.4 °F -7.2 °F 5.0 °F 79% 30.16 in 2.0 mi NE 17.3 mph - N/A Snow Light Snow
9:15 AM 10.4 °F -6.0 °F 5.0 °F 79% 30.18 in 1.5 mi NE 15.0 mph 23.0 mph N/A Snow Light Snow
9:35 AM 8.6 °F -9.5 °F 3.2 °F 79% 30.18 in 0.5 mi NE 17.3 mph - N/A Snow Light Snow
9:55 AM 8.6 °F -8.9 °F 3.2 °F 79% 30.19 in 1.5 mi NE 16.1 mph - N/A Snow Light Snow
10:15 AM 8.6 °F -10.0 °F 3.2 °F 79% 30.20 in 0.8 mi NE 18.4 mph - N/A Snow Light Snow
10:35 AM 8.6 °F -8.9 °F 3.2 °F 79% 30.21 in 1.2 mi NE 16.1 mph - N/A Snow Light Snow
10:55 AM 8.6 °F -9.5 °F 3.2 °F 79% 30.21 in 1.2 mi NNE 17.3 mph - N/A Snow Light Snow
11:15 AM 8.6 °F -7.7 °F 3.2 °F 79% 30.20 in 1.0 mi NNE 13.8 mph 19.6 mph N/A Snow Light Snow
11:35 AM 8.6 °F -7.7 °F 3.2 °F 79% 30.19 in 1.5 mi NNE 13.8 mph 19.6 mph N/A Snow Light Snow
11:55 AM 8.6 °F -7.7 °F 3.2 °F 79% 30.19 in 0.8 mi NNE 13.8 mph - N/A Snow Light Snow
12:15 PM 8.6 °F -8.9 °F 3.2 °F 79% 30.18 in 0.8 mi NNE 16.1 mph - N/A Snow Light Snow
12:35 PM 6.8 °F -11.3 °F 1.4 °F 79% 30.19 in 0.8 mi NNE 16.1 mph - N/A Snow Light Snow
12:55 PM 6.8 °F -10.0 °F 1.4 °F 79% 30.19 in 0.5 mi NNE 13.8 mph - N/A Snow Light Snow
1:15 PM 6.8 °F -10.0 °F 1.4 °F 79% 30.18 in 0.8 mi NNE 13.8 mph 20.7 mph N/A Snow Light Snow
1:35 PM 6.8 °F -11.3 °F 1.4 °F 79% 30.18 in 0.5 mi NNE 16.1 mph - N/A Snow Light Snow
1:55 PM 6.8 °F -11.8 °F 1.4 °F 79% 30.18 in 1.0 mi NNE 17.3 mph - N/A Snow Light Snow
2:15 PM 6.8 °F -11.3 °F 1.4 °F 79% 30.18 in 1.0 mi NNE 16.1 mph - N/A Snow Light Snow
2:35 PM 6.8 °F -10.0 °F 1.4 °F 79% 30.18 in 1.2 mi NNE 13.8 mph 20.7 mph N/A Snow Light Snow
2:55 PM 6.8 °F -9.3 °F 1.4 °F 79% 30.19 in 2.0 mi North 12.7 mph 20.7 mph N/A Snow Light Snow
3:15 PM 6.8 °F -11.3 °F 1.4 °F 79% 30.19 in 3.0 mi North 16.1 mph - N/A Snow Light Snow
3:35 PM 6.8 °F -10.0 °F 1.4 °F 79% 30.19 in 9.0 mi NNE 13.8 mph 21.9 mph N/A   Scattered Clouds
3:55 PM 6.8 °F -12.9 °F 1.4 °F 79% 30.20 in 9.0 mi North 19.6 mph 25.3 mph N/A   Mostly Cloudy
4:15 PM 6.8 °F -11.8 °F 1.4 °F 79% 30.21 in 9.0 mi North 17.3 mph - N/A   Overcast
4:35 PM 6.8 °F -12.4 °F 1.4 °F 79% 30.21 in 10.0 mi North 18.4 mph - N/A   Overcast
4:55 PM 6.8 °F -12.4 °F 1.4 °F 79% 30.22 in 10.0 mi North 18.4 mph - N/A   Overcast
5:15 PM 6.8 °F -13.8 °F -0.4 °F 72% 30.22 in 10.0 mi North 21.9 mph - N/A   Overcast
5:35 PM 5.0 °F -14.7 °F -0.4 °F 78% 30.23 in 10.0 mi North 18.4 mph - N/A   Overcast
5:55 PM 5.0 °F -14.2 °F -2.2 °F 72% 30.25 in 10.0 mi North 17.3 mph 24.2 mph N/A   Overcast
6:15 PM 5.0 °F -15.2 °F -2.2 °F 72% 30.26 in 10.0 mi North 19.6 mph - N/A   Overcast
6:35 PM 5.0 °F -13.6 °F -2.2 °F 72% 30.27 in 10.0 mi North 16.1 mph - N/A   Overcast
6:55 PM 5.0 °F -13.0 °F -2.2 °F 72% 30.27 in 10.0 mi North 15.0 mph - N/A   Overcast
7:15 PM 5.0 °F -13.0 °F -2.2 °F 72% 30.28 in 10.0 mi North 15.0 mph 20.7 mph N/A   Overcast
7:35 PM 5.0 °F -13.6 °F -2.2 °F 72% 30.28 in 10.0 mi North 16.1 mph - N/A   Overcast
7:55 PM 5.0 °F -12.3 °F -2.2 °F 72% 30.29 in 10.0 mi North 13.8 mph - N/A   Overcast
8:15 PM 5.0 °F -12.3 °F -2.2 °F 72% 30.30 in 10.0 mi North 13.8 mph - N/A   Overcast
8:35 PM 5.0 °F -12.3 °F -2.2 °F 72% 30.30 in 10.0 mi North 13.8 mph 23.0 mph N/A   Overcast
8:55 PM 3.2 °F -15.3 °F -2.2 °F 78% 30.31 in 10.0 mi North 15.0 mph 24.2 mph N/A   Overcast
9:15 PM 3.2 °F -16.5 °F -4.0 °F 72% 30.31 in 10.0 mi North 17.3 mph 25.3 mph N/A   Overcast
9:35 PM 3.2 °F -16.5 °F -4.0 °F 72% 30.31 in 10.0 mi North 17.3 mph 24.2 mph N/A   Overcast
9:55 PM 1.4 °F -18.8 °F -5.8 °F 72% 30.31 in 10.0 mi North 17.3 mph 24.2 mph N/A   Overcast
10:15 PM 1.4 °F -17.6 °F -5.8 °F 72% 30.31 in 10.0 mi North 15.0 mph 20.7 mph N/A   Overcast
10:35 PM 1.4 °F -18.2 °F -5.8 °F 72% 30.31 in 10.0 mi North 16.1 mph - N/A   Overcast
10:55 PM 1.4 °F -16.1 °F -5.8 °F 72% 30.30 in 10.0 mi North 12.7 mph - N/A   Overcast
11:35 PM 1.4 °F -16.1 °F -5.8 °F 72% 30.30 in 10.0 mi North 12.7 mph - N/A   Overcast
11:55 PM 1.4 °F -16.9 °F -5.8 °F 72% 30.30 in 10.0 mi NNW 13.8 mph - N/A   Overcast